[[{"header":{"parameterUnit":"m.s-1","parameterCategory":1,"la1":30.2991,"la2":30.254,"lo1":-89.0895,"lo2":-89.0444,"dy":0.0017,"dx":0.0017,"nx":28,"ny":28,"refTime":"2023-09-26T21:00:00:Z","depth":0,"parameterNumber":2,"parameterNumberName":"U-component_of_WINDS"},"data":[0,0,0,0,0,0,0,0,0,0,0,0,0,0,0,0,0,0,0,0,0,0,0,0,0,0,0,0,0,0,0,0,0,0,0,0,0,0,0,0,0,0,0,0,0,0,0,0,0,0,0,0,0,0,0,0,0,0,-3.7814,-3.7814,0,-3.7792,-3.7792,-3.7792,-3.7727,-3.7726,-3.7725,-3.7723,-3.7701,-3.7702,-3.7702,0,0,0,0,0,0,0,0,0,0,0,0,0,-3.7802,-3.7803,-3.7814,-3.7814,-3.7814,-3.7792,-3.7792,-3.7792,-3.7728,-3.7726,-3.7724,-3.7723,-3.7701,-3.7701,-3.7702,0,0,0,0,0,0,0,0,0,0,0,0,0,-3.7797,-3.7803,-3.7814,-3.7779,-3.7776,-3.7792,-3.7792,-3.7791,-3.7728,-3.7726,-3.7724,-3.7722,-3.77,-3.7701,-3.7702,-3.7751,0,0,-3.7706,-3.7706,0,0,0,0,0,0,0,0,-3.7797,-3.7797,-3.7785,-3.7782,-3.7778,-3.776,-3.7779,-3.7778,-3.7729,-3.7746,-3.7723,-3.7721,-3.7722,-3.7721,-3.7722,-3.775,-3.7749,-3.7706,-3.7706,-3.7707,-3.7707,0,0,0,0,0,0,0,-3.7798,-3.7798,-3.7805,-3.7785,-3.778,-3.7765,-3.7762,-3.7779,-3.7746,-3.7744,-3.774,-3.7738,-3.772,-3.7721,-3.7721,-3.7749,-3.7706,-3.7707,-3.7707,-3.7708,-3.7817,-3.7819,0,0,0,0,0,0,-3.7803,-3.7799,-3.7806,-3.7805,-3.7783,-3.7767,-3.7763,-3.7768,-3.7746,-3.7741,-3.774,-3.7735,-3.772,-3.772,-3.772,-3.7776,-3.7707,-3.7708,-3.7708,-3.7815,-3.7817,-3.782,0,0,0,0,0,0,-3.7803,-3.7804,-3.7807,-3.78,-3.78,-3.7769,-3.7775,-3.7769,-3.777,-3.7742,-3.7736,-3.7747,-3.7719,-3.7718,-3.7744,-3.7774,-3.7708,-3.7709,-3.7812,-3.7816,-3.7819,-3.7889,0,0,0,0,0,0,-3.7803,-3.7805,-3.7822,-3.7801,-3.78,-3.7831,-3.7777,-3.777,-3.7772,-3.7765,-3.7747,-3.7742,-3.7717,-3.7743,-3.7745,-3.7775,-3.771,-3.7809,-3.7814,-3.7818,-3.7884,-3.7894,-3.7903,0,0,0,0,0,-3.7803,-3.7843,-3.7824,-3.7825,-3.7822,-3.7833,-3.7833,-3.7803,-3.7774,-3.7792,-3.7775,-3.7743,-3.7771,-3.7746,-3.7748,-3.7778,-3.7807,-3.7812,-3.7817,-3.7879,-3.7892,-3.7903,0,0,0,0,0,0,-3.7868,-3.7839,-3.7818,-3.7852,-3.7846,-3.7822,-3.7844,-3.7817,-3.7818,-3.7812,-3.7775,-3.7772,-3.7803,-3.7793,-3.7766,-3.7825,-3.7784,-3.779,-3.783,-3.7842,-3.7852,-3.7854,-3.7711,0,0,0,0,0,-3.7886,-3.7898,-3.7872,-3.7905,-3.7903,-3.7874,-3.7878,-3.7856,-3.7848,-3.7844,-3.7829,-3.7823,-3.783,-3.7835,-3.7841,-3.7882,-3.7878,-3.7904,-3.7914,-3.7922,-3.7928,-3.795,-3.7962,-3.7837,-3.7837,-3.7837,0,0,-3.7924,-3.791,-3.7919,-3.7918,-3.791,-3.7923,-3.7872,-3.7888,-3.7898,-3.7847,-3.787,-3.7859,-3.7849,-3.7884,-3.7898,-3.7876,-3.7961,-3.7929,-3.7935,-3.7936,-3.7956,-3.7968,-3.7979,-3.784,-3.784,-3.7839,0,0,-3.8,-3.799,-3.8017,-3.8011,-3.8,-3.7981,-3.7988,-3.7969,-3.796,-3.7983,-3.7945,-3.7956,-3.797,-3.7965,-3.7964,-3.804,-3.8011,-3.8043,-3.8094,-3.8117,-3.8126,-3.8135,-3.8163,-3.8173,-3.8049,-3.8049,-3.8049,0,-3.8048,-3.8066,-3.8034,-3.8053,-3.8054,-3.8009,-3.8036,-3.8032,-3.8024,-3.8025,-3.8002,-3.8018,-3.8009,-3.8042,-3.8061,-3.8061,-3.8068,-3.8045,-3.8128,-3.8136,-3.8143,-3.817,-3.818,-3.8053,-3.8052,-3.8052,-3.8052,0,-3.8127,-3.8141,-3.8164,-3.8157,-3.8161,-3.8184,-3.8156,-3.8163,-3.8141,-3.8125,-3.815,-3.8137,-3.8139,-3.8145,-3.8124,-3.8176,-3.8163,-3.8134,-3.8092,-3.816,-3.8184,-3.8194,-3.8059,-3.8057,-3.8056,-3.8055,0,0,-3.8242,-3.8219,-3.8228,-3.8225,-3.8211,-3.8221,-3.8243,-3.8245,-3.8253,-3.8249,-3.8267,-3.828,-3.8254,-3.8253,-3.823,-3.825,-3.8313,-3.8219,-3.8218,-3.8237,-3.8371,-3.8393,-3.8405,-3.8294,-3.8295,-3.8297,-3.8372,0,-3.8315,-3.835,-3.8322,-3.8363,-3.8375,-3.8334,-3.8353,-3.8347,-3.8333,-3.8342,-3.8326,-3.8336,-3.83,-3.83,-3.8317,-3.8301,-3.8339,-3.8296,-3.831,-3.8311,-3.8314,-3.8417,-3.844,-3.8512,-3.8381,-3.8383,-3.8384,0,-3.8403,-3.8404,-3.8446,-3.8431,-3.8435,-3.8453,-3.8454,-3.8463,-3.8456,-3.8444,-3.8444,-3.8417,-3.8438,-3.8397,-3.8426,-3.8397,-3.8401,-3.8395,-3.8397,-3.8397,-3.8352,-3.8421,-3.8534,-3.8545,-3.8398,-3.8397,-3.8396,0,-3.8484,-3.8496,-3.8523,-3.8522,-3.8504,-3.8518,-3.8511,-3.8502,-3.8506,-3.8507,-3.8509,-3.8513,-3.8515,-3.8518,-3.8493,-3.8465,-3.8526,-3.8482,-3.8517,-3.8518,-3.8531,-3.8531,-3.8647,-3.8534,-3.8534,-3.8534,-3.8534,0,-3.8568,-3.8595,-3.8559,-3.8576,-3.8606,-3.8574,-3.8605,-3.8594,-3.8586,-3.8601,-3.8565,-3.8579,-3.8545,-3.8556,-3.8536,-3.8564,-3.8565,-3.8557,-3.8551,-3.856,-3.8561,-3.8562,-3.8557,-3.8537,-3.8536,-3.8536,-3.8535,0,-3.8663,-3.8639,-3.8666,-3.8648,-3.8644,-3.8667,-3.8652,-3.8667,-3.8651,-3.867,-3.8672,-3.8647,-3.8659,-3.8634,-3.8641,-3.8628,-3.8668,-3.8654,-3.867,-3.8666,-3.8703,-3.87,-3.8824,-3.8839,-3.8717,-3.8718,-3.8719,0,-3.8718,-3.8738,-3.8722,-3.873,-3.8725,-3.8737,-3.8741,-3.8711,-3.8717,-3.8711,-3.8728,-3.8736,-3.8741,-3.8761,-3.8744,-3.875,-3.8736,-3.878,-3.8737,-3.8746,-3.8738,-3.8737,-3.8739,-3.8788,-3.879,-3.8791,-3.8792,0,-3.8818,-3.8806,-3.8813,-3.8817,-3.8824,-3.8825,-3.8824,-3.8832,-3.88,-3.8809,-3.882,-3.8824,-3.8833,-3.8842,-3.8844,-3.8838,-3.881,-3.8806,-3.8814,-3.8823,-3.8832,-3.8829,-3.8695,-3.8803,-3.8802,-3.8801,-3.88,-3.88,-3.8895,-3.8912,-3.8904,-3.8914,-3.891,-3.891,-3.8924,-3.891,-3.8919,-3.8924,-3.8906,-3.8922,-3.8915,-3.8915,-3.8912,-3.8924,-3.8905,-3.8917,-3.892,-3.8924,-3.893,-3.883,-3.8925,-3.8924,-3.8924,-3.8924,-3.8923,0,-3.8994,-3.8987,-3.8997,-3.8997,-3.9005,-3.8979,-3.8977,-3.8985,-3.9,-3.8996,-3.9002,-3.9016,-3.9025,-3.9009,-3.9016,-3.9029,-3.9016,-3.9032,-3.903,-3.903,-3.8947,-3.8939,-3.9042,-3.9042,-3.9042,-3.9042,-3.9042,-3.9042,-3.9047,-3.9074,-3.9061,-3.9087,-3.908,-3.9095,-3.9096,-3.9097,-3.9094,-3.9111,-3.9119,-3.9108,-3.91,-3.9106,-3.9114,-3.9109,-3.9113,-3.9133,-3.9124,-3.9047,-3.9035,-3.9024,-3.9017,-3.9134,-3.9134,-3.9206,-3.9207,-3.9207]},{"header":{"parameterUnit":"m.s-1","parameterCategory":1,"la1":30.2991,"la2":30.254,"lo1":-89.0895,"lo2":-89.0444,"dy":0.0017,"dx":0.0017,"nx":28,"ny":28,"refTime":"2023-09-26T21:00:00:Z","depth":0,"parameterNumber":3,"parameterNumberName":"V-component_of_WINDS"},"data":[0,0,0,0,0,0,0,0,0,0,0,0,0,0,0,0,0,0,0,0,0,0,0,0,0,0,0,0,0,0,0,0,0,0,0,0,0,0,0,0,0,0,0,0,0,0,0,0,0,0,0,0,0,0,0,0,0,0,-3.456,-3.456,0,-3.4571,-3.4571,-3.4571,-3.4526,-3.4524,-3.4523,-3.4522,-3.4532,-3.4533,-3.4535,0,0,0,0,0,0,0,0,0,0,0,0,0,-3.4496,-3.4498,-3.456,-3.456,-3.456,-3.4571,-3.4571,-3.4571,-3.4526,-3.4524,-3.4522,-3.4521,-3.4531,-3.4533,-3.4535,0,0,0,0,0,0,0,0,0,0,0,0,0,-3.4517,-3.4498,-3.456,-3.4539,-3.4537,-3.4571,-3.4571,-3.4572,-3.4526,-3.4524,-3.4522,-3.452,-3.4531,-3.4533,-3.4535,-3.459,0,0,-3.4542,-3.4543,0,0,0,0,0,0,0,0,-3.4516,-3.452,-3.4541,-3.454,-3.4538,-3.4545,-3.4553,-3.4578,-3.4527,-3.453,-3.4522,-3.4519,-3.4538,-3.4539,-3.4546,-3.4591,-3.4591,-3.4543,-3.4544,-3.4545,-3.4546,0,0,0,0,0,0,0,-3.4515,-3.4519,-3.4564,-3.4542,-3.454,-3.4528,-3.4529,-3.4557,-3.4545,-3.453,-3.4526,-3.4528,-3.4536,-3.4544,-3.4546,-3.4591,-3.4543,-3.4545,-3.4546,-3.4547,-3.4681,-3.4683,0,0,0,0,0,0,-3.4516,-3.4518,-3.4564,-3.4564,-3.4522,-3.4531,-3.4531,-3.4545,-3.4545,-3.4543,-3.453,-3.4526,-3.4541,-3.4543,-3.4546,-3.461,-3.4545,-3.4547,-3.4548,-3.4679,-3.4682,-3.4684,0,0,0,0,0,0,-3.4515,-3.4521,-3.4563,-3.454,-3.4545,-3.4534,-3.4549,-3.4546,-3.4553,-3.4545,-3.4543,-3.454,-3.4539,-3.4543,-3.458,-3.461,-3.4548,-3.455,-3.4677,-3.468,-3.4683,-3.474,0,0,0,0,0,0,-3.4514,-3.4521,-3.4542,-3.4541,-3.4546,-3.4597,-3.4551,-3.4548,-3.4558,-3.4553,-3.4554,-3.4552,-3.4538,-3.4576,-3.4582,-3.4612,-3.4552,-3.4674,-3.4678,-3.4682,-3.4735,-3.4744,-3.4753,0,0,0,0,0,-3.4511,-3.4557,-3.4543,-3.4549,-3.4573,-3.4599,-3.4602,-3.4586,-3.456,-3.4581,-3.4576,-3.4552,-3.4606,-3.4581,-3.4586,-3.4618,-3.4672,-3.4677,-3.4682,-3.4731,-3.4743,-3.4752,0,0,0,0,0,0,-3.4561,-3.4557,-3.4541,-3.4588,-3.4595,-3.4592,-3.4618,-3.4598,-3.4612,-3.4606,-3.4585,-3.4585,-3.4626,-3.4625,-3.4597,-3.4671,-3.4634,-3.4641,-3.467,-3.4681,-3.4689,-3.4689,-3.4554,0,0,0,0,0,-3.4578,-3.46,-3.4595,-3.4637,-3.4641,-3.4629,-3.464,-3.4626,-3.4632,-3.4634,-3.4631,-3.4637,-3.4655,-3.4668,-3.4684,-3.4734,-3.4734,-3.4759,-3.4767,-3.4775,-3.4781,-3.4807,-3.4818,-3.47,-3.47,-3.47,0,0,-3.4612,-3.4612,-3.4628,-3.4647,-3.465,-3.4674,-3.4631,-3.4658,-3.4675,-3.4638,-3.4673,-3.4671,-3.4676,-3.472,-3.4739,-3.4721,-3.4813,-3.4781,-3.4787,-3.4789,-3.4813,-3.4825,-3.4835,-3.4704,-3.4703,-3.4703,0,0,-3.4687,-3.4689,-3.4725,-3.4729,-3.4734,-3.4726,-3.4735,-3.4734,-3.4732,-3.4767,-3.474,-3.4759,-3.4791,-3.4796,-3.4802,-3.4878,-3.4857,-3.4884,-3.493,-3.4956,-3.4965,-3.4973,-3.5001,-3.5011,-3.489,-3.489,-3.489,0,-3.4729,-3.4763,-3.4745,-3.4774,-3.4782,-3.475,-3.4786,-3.4791,-3.4801,-3.4808,-3.4787,-3.4826,-3.4827,-3.4872,-3.4891,-3.4897,-3.4906,-3.4884,-3.4966,-3.4973,-3.4981,-3.5007,-3.5017,-3.4893,-3.4893,-3.4892,-3.4892,0,-3.4815,-3.4839,-3.4867,-3.4878,-3.489,-3.4922,-3.4908,-3.4922,-3.4908,-3.4901,-3.4937,-3.4937,-3.4953,-3.4962,-3.4948,-3.5005,-3.4993,-3.4969,-3.4932,-3.4996,-3.502,-3.5029,-3.4898,-3.4897,-3.4896,-3.4895,0,0,-3.4922,-3.4923,-3.4933,-3.4938,-3.4942,-3.496,-3.499,-3.5006,-3.5018,-3.5026,-3.5051,-3.5078,-3.5056,-3.5064,-3.505,-3.5073,-3.5133,-3.5046,-3.5046,-3.5063,-3.5196,-3.5214,-3.5226,-3.5119,-3.5121,-3.5122,-3.5196,0,-3.4995,-3.5048,-3.5032,-3.5084,-3.5106,-3.5076,-3.5102,-3.5106,-3.5101,-3.5119,-3.5112,-3.5132,-3.5102,-3.5106,-3.5127,-3.5122,-3.516,-3.5116,-3.5141,-3.5143,-3.5142,-3.5239,-3.5258,-3.5328,-3.5205,-3.5207,-3.5208,0,-3.5089,-3.5101,-3.5156,-3.5156,-3.5164,-3.5188,-3.5201,-3.5218,-3.5223,-3.5217,-3.5226,-3.5207,-3.5236,-3.5198,-3.5238,-3.5208,-3.5217,-3.5216,-3.5218,-3.5221,-3.518,-3.5244,-3.535,-3.5361,-3.5222,-3.5221,-3.522,0,-3.5162,-3.5192,-3.5229,-3.5234,-3.5234,-3.5252,-3.5253,-3.5255,-3.5266,-3.5277,-3.5283,-3.5298,-3.5306,-3.5317,-3.5302,-3.5276,-3.5344,-3.5305,-3.534,-3.5341,-3.5356,-3.5356,-3.5466,-3.5361,-3.5361,-3.5361,-3.5361,0,-3.5246,-3.5281,-3.5262,-3.5284,-3.5322,-3.5303,-3.5341,-3.5338,-3.5341,-3.5362,-3.5336,-3.5356,-3.5335,-3.5354,-3.5342,-3.5377,-3.538,-3.5376,-3.5373,-3.5379,-3.538,-3.5386,-3.5381,-3.5364,-3.5363,-3.5363,-3.5362,0,-3.5335,-3.5323,-3.5362,-3.5359,-3.5359,-3.5387,-3.5385,-3.5405,-3.5398,-3.5425,-3.543,-3.5418,-3.5439,-3.5425,-3.5445,-3.5437,-3.5483,-3.5472,-3.5481,-3.5479,-3.5515,-3.5512,-3.5633,-3.5648,-3.5533,-3.5535,-3.5535,0,-3.539,-3.5416,-3.5417,-3.5429,-3.5432,-3.5452,-3.5463,-3.5445,-3.5457,-3.5464,-3.5484,-3.5501,-3.5515,-3.5549,-3.5542,-3.5557,-3.5547,-3.5588,-3.5549,-3.5554,-3.5548,-3.5547,-3.555,-3.5596,-3.5598,-3.5599,-3.56,0,-3.5489,-3.5482,-3.5499,-3.5513,-3.5527,-3.5537,-3.5546,-3.5557,-3.5539,-3.5554,-3.5574,-3.5585,-3.5605,-3.5623,-3.5636,-3.5636,-3.5615,-3.5612,-3.5621,-3.5628,-3.5632,-3.5631,-3.5504,-3.5609,-3.5608,-3.5608,-3.5607,-3.5607,-3.5563,-3.5585,-3.5589,-3.5608,-3.5612,-3.5621,-3.564,-3.5635,-3.5652,-3.5668,-3.5655,-3.568,-3.5683,-3.5698,-3.5701,-3.5719,-3.5702,-3.5715,-3.5719,-3.5722,-3.5728,-3.5629,-3.5721,-3.5721,-3.5721,-3.572,-3.572,0,-3.5661,-3.5662,-3.568,-3.5693,-3.5708,-3.5686,-3.5694,-3.5708,-3.5731,-3.5736,-3.5749,-3.5773,-3.579,-3.5785,-3.58,-3.5816,-3.5807,-3.5821,-3.582,-3.582,-3.5742,-3.5733,-3.5828,-3.5828,-3.5828,-3.5828,-3.5828,-3.5828,-3.5714,-3.575,-3.5744,-3.5781,-3.5781,-3.5806,-3.5812,-3.5819,-3.5823,-3.5851,-3.5865,-3.5862,-3.5862,-3.5877,-3.5892,-3.589,-3.5897,-3.5915,-3.591,-3.5836,-3.5826,-3.5816,-3.5807,-3.5917,-3.5917,-3.5987,-3.5987,-3.5988]}]]